Wind_Speed
64 66 63 62 63 65 65 65 64 65 64 63 64 64 61 61 62 58 56 60 63 66 68 71 71 68 68 67 66 65 64 62 60 58 56 54 53 52 52 51 49 47 44 42 40 39 40 41 41 43 43 43 42 42 41 41 41 41 41 42 42 43 43 43 43 43 44 45 46 46 46 46 47 49 49 50 49 47 45 44 41 33 29 34 39 41
64 62 60 60 62 66 68 66 65 66 64 62 62 62 61 62 63 59 56 57 60 63 67 70 69 67 68 67 65 64 63 62 60 58 56 55 53 53 53 51 49 46 44 44 42 41 42 42 42 43 44 43 43 42 41 41 41 41 42 43 43 43 43 43 43 43 44 45 46 46 45 45 45 47 50 50 50 48 46 46 44 38 35 39 43 44
61 58 58 61 63 66 68 68 68 67 64 62 62 64 63 63 64 60 56 56 59 63 67 67 64 65 67 66 65 64 63 62 59 57 56 55 54 53 53 51 48 45 44 44 45 45 44 43 44 44 44 44 44 42 41 41 41 42 43 44 44 44 44 43 42 42 43 44 44 45 45 44 45 46 48 49 50 49 48 47 46 42 40 43 44 42
58 56 58 63 65 65 66 69 70 66 63 63 64 65 63 64 65 59 54 55 59 62 64 63 63 66 67 66 66 64 62 60 58 56 55 54 53 52 51 49 47 45 44 45 46 46 45 44 45 45 45 45 44 42 41 41 42 42 44 44 45 45 44 43 42 42 42 42 42 42 43 44 44 46 46 47 48 50 50 47 43 41 42 44 43 41
58 59 62 64 65 64 65 69 69 65 63 64 65 65 64 66 64 57 55 57 59 62 61 59 62 66 66 65 65 63 60 58 57 55 53 53 53 52 50 49 47 45 45 46 47 46 45 45 46 46 46 46 45 43 42 42 42 43 44 45 45 45 44 43 43 43 42 41 40 40 41 42 43 44 45 46 46 48 51 49 44 43 46 47 44 42
61 63 63 62 64 65 65 68 67 65 65 65 65 64 64 66 63 58 58 59 60 61 59 57 61 65 64 63 63 60 58 56 54 53 52 52 53 52 52 50 48 46 47 48 48 48 47 46 47 47 47 47 45 44 44 43 43 44 45 46 45 45 44 43 42 41 41 40 39 39 39 40 42 43 44 46 47 48 51 53 51 47 47 48 45 43
64 63 62 62 63 64 65 66 67 67 67 65 64 64 65 65 63 60 58 58 59 59 57 56 60 64 63 62 60 58 56 54 53 51 50 51 51 51 52 50 49 48 48 49 49 48 48 48 47 47 47 47 46 46 45 44 44 45 45 46 46 45 44 43 41 40 38 38 38 38 37 37 39 41 42 44 46 48 50 53 55 49 44 44 44 42
64 63 62 62 61 62 65 66 67 68 67 66 65 65 65 64 62 59 56 57 59 59 58 56 60 63 61 60 58 56 56 54 52 51 51 51 51 51 51 50 49 48 48 48 49 49 49 49 48 47 48 47 47 47 46 46 45 45 45 46 46 45 44 43 41 39 37 37 36 36 36 36 37 39 40 41 44 48 51 52 54 52 46 42 39 38
64 64 63 60 60 62 64 66 67 69 69 69 67 66 65 64 61 58 56 58 59 59 58 58 60 61 58 57 55 54 55 55 53 51 52 52 52 52 52 51 49 48 48 48 49 49 50 49 48 48 48 48 47 47 47 47 46 45 46 46 45 44 44 43 41 38 37 36 36 36 36 36 37 38 38 39 42 46 50 52 50 48 46 41 36 35
68 67 63 61 63 63 63 66 68 70 72 71 69 67 66 64 60 59 59 60 61 61 60 59 59 59 56 54 53 52 54 55 53 52 54 53 53 53 52 51 50 49 49 49 50 50 50 50 50 49 49 49 48 48 48 47 46 46 46 45 44 44 43 42 40 38 37 36 35 35 34 34 35 37 38 38 39 42 47 51 49 44 43 41 37 37
70 67 62 62 64 64 65 67 69 70 74 75 71 68 66 64 61 61 60 60 63 63 60 59 59 58 54 50 50 50 51 53 54 54 56 55 54 54 53 52 51 50 50 50 50 51 50 50 50 50 50 50 49 49 49 48 47 46 46 45 44 44 43 42 41 39 38 37 36 35 33 32 33 36 39 39 39 40 43 49 49 45 44 42 41 40
69 65 62 63 66 66 67 69 69 72 77 76 70 68 67 65 62 62 60 61 63 61 56 57 56 56 54 50 48 47 47 51 55 57 57 56 56 56 54 54 53 52 51 51 51 51 51 51 51 51 51 51 50 49 49 48 47 47 46 45 45 44 43 43 43 41 39 37 36 36 35 33 32 34 38 40 40 40 41 45 49 49 46 45 45 43
65 63 62 65 68 67 68 70 71 75 78 73 69 69 69 66 63 62 61 61 61 56 54 56 55 55 56 53 47 43 43 48 54 58 59 58 58 57 56 55 54 52 51 51 51 51 52 52 51 52 52 51 50 50 50 49 48 47 46 46 45 44 45 45 44 43 41 39 37 36 36 35 33 33 35 39 40 40 39 41 47 51 50 48 48 46
63 63 64 67 68 67 70 71 72 75 74 69 68 70 67 64 62 59 58 57 56 53 54 57 57 57 56 52 48 45 44 46 51 57 60 60 59 58 57 56 55 53 52 52 52 52 53 52 52 52 52 52 51 50 50 49 48 47 47 46 45 45 46 46 45 44 42 41 39 38 37 36 35 33 33 37 40 41 40 39 44 51 54 52 49 48
63 63 64 66 66 67 69 69 70 71 69 67 69 70 68 65 61 57 56 54 52 53 55 58 58 57 54 50 48 49 49 51 53 56 60 62 61 59 58 57 56 54 53 54 54 53 53 53 52 53 53 52 51 51 50 49 48 48 47 46 46 47 48 47 46 46 44 43 41 40 39 38 37 33 31 35 41 45 42 37 39 46 52 54 52 50
61 62 63 64 65 67 68 69 71 71 70 70 71 70 68 65 61 59 58 56 54 55 57 58 58 54 50 48 49 51 52 53 54 55 58 62 63 62 60 59 58 56 54 54 54 54 54 53 53 53 53 52 52 51 51 50 49 48 47 47 47 48 48 48 48 47 46 44 43 42 43 41 39 34 30 31 39 46 42 33 34 40 45 51 55 54
60 63 66 67 67 67 68 70 72 71 70 70 70 68 65 63 61 60 59 58 57 57 56 56 55 52 49 48 50 53 54 53 53 53 56 60 63 64 62 61 60 57 55 54 55 55 54 53 53 54 53 52 52 51 51 50 49 48 48 48 48 49 49 49 49 49 47 46 45 45 45 44 42 38 33 30 33 42 41 30 29 36 42 48 57 59
61 65 66 66 66 67 69 72 73 71 70 70 68 66 64 64 64 62 61 60 59 57 54 54 53 53 52 51 51 53 54 54 54 54 55 58 62 64 64 62 60 58 56 55 56 55 54 54 54 55 54 53 52 51 50 50 49 48 48 49 49 49 49 50 50 49 48 47 47 48 47 45 43 40 36 32 30 39 43 36 33 39 45 48 53 57
62 66 66 64 66 68 70 74 74 72 71 68 67 66 66 66 64 62 60 58 57 55 54 54 54 54 54 53 53 53 53 54 55 55 56 57 60 63 64 63 61 59 58 57 56 55 55 55 55 55 54 53 52 51 51 50 49 49 49 50 50 50 50 51 51 49 49 49 49 50 49 46 44 40 37 33 30 36 43 44 43 45 47 47 50 52
62 66 65 64 67 69 71 74 72 70 68 67 68 67 66 64 61 59 56 53 54 53 53 54 53 54 55 55 56 56 55 55 55 55 56 57 59 62 64 63 61 60 59 57 57 55 55 55 55 55 55 53 52 52 51 51 50 50 51 51 51 51 51 51 51 50 50 50 51 52 51 47 44 41 37 33 30 35 41 45 47 47 46 47 49 49
61 64 64 66 69 71 71 70 67 66 68 67 65 64 63 61 58 58 55 53 53 52 54 55 55 56 57 56 55 56 56 57 57 56 57 57 58 60 62 63 62 61 59 58 56 56 56 56 56 56 55 54 53 52 52 51 51 52 52 53 52 52 52 52 52 52 51 52 52 53 52 48 45 42 37 33 30 33 40 44 46 47 48 47 46 44
60 63 64 66 68 67 66 65 64 67 68 64 61 63 62 59 57 57 54 52 52 51 53 56 58 59 56 53 54 56 57 58 57 57 58 57 58 59 61 63 63 62 59 58 57 57 56 56 57 56 55 54 53 53 53 52 52 54 54 54 53 53 53 53 53 53 53 53 53 53 53 49 45 42 37 33 29 32 40 45 48 49 50 49 43 39
59 62 63 63 64 63 65 67 68 68 66 64 65 67 63 59 58 56 53 51 51 51 53 56 58 57 55 54 57 58 57 56 56 58 57 57 58 59 60 63 63 62 60 58 58 57 57 57 57 56 55 54 54 54 53 53 54 55 54 54 54 54 54 54 54 54 54 54 54 53 52 49 45 42 38 33 29 33 41 47 51 52 52 52 46 41
57 59 61 62 63 65 67 70 71 68 67 67 68 67 62 59 58 56 55 54 53 52 53 57 58 57 56 58 61 60 56 54 56 58 58 58 59 59 60 62 62 61 59 58 57 57 58 58 57 56 55 54 54 54 53 54 55 55 55 55 56 56 55 55 55 55 56 55 54 53 51 48 45 42 38 33 29 32 41 48 53 56 55 56 53 48
55 57 59 61 64 66 69 71 72 71 70 69 67 64 62 60 60 59 59 59 56 54 54 57 58 57 57 59 61 61 58 56 57 58 57 58 58 59 61 62 61 60 59 58 57 57 58 58 57 56 55 55 54 54 54 55 56 55 55 56 57 57 57 56 56 57 57 56 55 53 51 47 44 41 38 34 29 31 40 47 54 58 56 55 56 53
56 56 57 59 61 63 63 65 67 68 68 67 65 64 63 61 60 60 61 59 54 53 55 57 59 58 58 60 61 61 60 60 59 58 57 57 57 59 61 61 61 60 59 58 58 58 58 58 57 57 56 56 55 55 56 56 56 56 56 57 58 58 58 57 57 57 58 57 55 54 51 47 43 41 38 34 30 30 37 45 51 59 59 54 54 55
56 54 54 55 58 60 61 63 64 66 66 65 64 62 61 60 60 61 62 59 55 54 57 59 59 57 57 59 59 60 61 61 60 58 56 55 56 57 59 60 60 60 59 58 58 59 59 59 58 57 57 56 56 56 57 57 57 56 57 57 58 59 59 59 58 58 59 58 56 54 52 47 42 40 37 33 31 31 36 43 48 55 60 58 56 56
55 54 53 53 55 58 60 62 64 65 64 64 63 62 61 61 61 63 63 60 57 57 59 60 58 57 57 57 58 59 60 60 59 57 56 56 57 58 59 59 60 59 59 58 58 59 59 59 58 58 57 57 57 57 57 57 57 57 57 58 59 60 60 60 59 59 59 59 57 54 52 47 42 39 36 32 32 33 36 41 46 51 56 60 59 57
56 55 55 54 55 56 57 59 61 63 64 64 63 63 63 63 64 65 63 59 58 58 59 59 58 57 57 57 57 57 57 58 58 58 57 57 58 60 60 60 60 59 59 59 58 59 59 59 59 59 58 58 58 58 58 58 58 58 58 59 60 61 61 61 60 60 60 60 58 55 52 48 42 39 36 32 32 35 37 40 45 48 51 55 58 57
56 56 56 56 56 56 57 58 60 61 62 63 63 64 64 65 66 64 59 57 57 58 58 58 57 56 56 56 56 56 56 58 59 58 57 57 58 60 60 60 60 60 59 59 59 59 59 60 60 59 59 60 60 59 59 59 59 59 60 60 61 61 61 61 61 61 61 60 59 56 52 49 43 39 36 32 32 37 40 41 44 47 48 49 52 55
58 58 57 57 57 57 58 59 60 60 61 62 63 64 65 64 63 60 56 53 54 55 56 56 54 53 53 53 54 55 56 58 58 57 57 57 58 59 60 60 61 61 60 59 59 59 59 60 60 60 61 61 60 60 60 60 60 61 61 61 62 62 61 61 61 61 62 61 59 57 54 50 45 39 36 33 33 38 41 43 45 46 47 47 48 50
59 58 57 58 58 58 58 58 58 59 61 62 64 65 64 61 58 57 56 53 53 54 54 52 50 49 50 51 53 54 56 58 59 58 57 58 58 59 60 61 61 61 60 59 59 59 59 60 60 61 62 62 61 61 62 62 62 62 62 63 63 62 62 62 61 62 62 61 59 58 55 52 47 41 37 35 34 40 43 44 46 47 48 48 47 46
56 55 55 56 57 56 55 55 55 57 59 61 62 62 60 56 54 54 54 54 53 52 50 49 49 49 50 51 53 56 59 59 59 57 57 57 58 59 61 61 62 61 60 59 59 60 60 61 61 62 62 62 62 62 63 63 63 63 64 63 63 63 63 62 62 62 62 61 59 58 56 53 49 43 39 36 35 39 46 47 47 48 49 49 48 47
51 51 52 52 52 51 50 50 51 53 54 55 55 54 52 51 51 51 51 52 52 51 50 51 53 54 54 55 57 59 59 58 57 57 57 57 58 59 60 61 62 62 60 60 59 60 60 61 62 62 62 62 63 64 64 64 64 64 65 64 64 63 63 63 62 62 62 61 60 58 57 55 51 46 41 37 36 39 46 49 49 48 49 50 51 50
46 47 47 46 47 47 46 46 47 47 48 49 49 48 47 47 48 49 50 51 53 54 55 55 55 57 59 60 60 60 57 56 56 57 57 58 59 60 60 61 61 61 60 60 60 60 61 61 62 62 63 63 64 65 65 65 65 65 65 65 65 64 64 63 63 62 62 61 60 58 57 56 54 50 44 39 37 39 45 51 52 51 50 50 51 53
43 43 42 43 44 44 44 45 45 44 45 46 47 47 47 48 49 49 49 50 53 55 55 56 57 59 60 61 61 59 58 57 57 57 58 59 60 61 61 61 61 60 60 60 60 60 61 62 62 63 64 65 65 65 65 66 66 66 66 66 65 65 64 64 64 63 62 62 60 59 58 57 56 53 48 42 39 38 43 51 55 55 53 51 52 53
42 42 42 43 43 42 42 43 44 44 44 45 46 46 47 47 48 48 49 51 52 54 54 55 57 58 60 61 60 59 59 58 58 57 58 59 60 60 60 60 60 60 59 60 60 61 61 62 62 63 64 65 65 65 66 67 67 67 67 66 66 66 65 65 65 64 63 62 61 60 58 57 57 56 52 47 42 39 41 48 56 59 57 55 54 54
41 41 42 43 43 42 40 41 43 45 46 46 46 46 47 48 49 50 51 53 54 55 56 57 58 59 59 59 58 57 57 57 57 57 58 58 59 60 60 60 60 60 59 60 60 60 61 61 62 63 64 65 65 66 66 67 67 67 67 67 67 66 66 66 65 65 63 62 62 61 60 59 58 58 56 51 45 42 41 45 52 59 62 60 58 57
42 42 42 43 43 43 42 41 43 44 44 45 46 47 48 49 51 52 53 54 55 56 57 59 60 60 59 58 57 56 56 56 56 57 57 58 59 59 59 59 59 59 59 59 60 60 61 61 62 63 64 65 66 66 67 67 68 68 68 68 68 67 67 67 66 65 64 63 63 62 62 61 61 60 58 54 49 45 43 44 48 56 62 64 63 61
43 44 44 43 43 44 44 44 44 44 45 47 48 49 50 51 52 53 54 55 57 58 60 61 61 60 59 58 57 57 57 57 56 57 57 58 58 59 59 59 59 59 59 59 60 61 61 62 63 64 65 66 66 67 68 68 68 69 69 69 69 68 68 68 67 66 65 64 64 64 63 64 64 63 60 57 52 48 45 45 47 52 59 64 66 65
46 46 45 45 46 47 47 47 47 48 49 51 51 52 53 55 55 55 55 56 59 59 59 59 59 58 58 57 57 57 58 57 57 57 57 58 58 58 58 58 59 60 60 60 61 62 62 63 64 65 66 67 67 68 69 69 70 70 70 70 70 70 69 69 68 67 67 66 65 65 66 66 66 65 62 58 55 51 48 46 47 49 55 61 66 68
48 48 48 49 49 50 49 50 52 53 53 53 53 54 55 56 56 56 56 58 59 58 57 57 56 56 57 57 57 57 57 57 57 57 57 58 58 58 58 58 59 60 60 61 62 63 63 64 65 66 66 68 68 69 70 70 70 70 70 71 71 71 71 70 69 69 68 68 67 68 68 68 68 66 63 59 57 54 51 48 47 48 52 57 63 67
50 50 51 52 52 52 53 54 56 56 56 56 56 56 56 57 57 57 58 59 59 57 55 55 55 55 55 55 56 56 56 57 57 57 57 58 58 58 58 59 60 60 61 62 63 63 64 65 66 67 67 68 69 70 70 71 71 72 72 72 72 72 72 71 71 70 70 70 71 71 71 70 68 65 62 60 58 56 53 50 49 49 50 53 59 64
52 52 53 54 55 55 56 56 57 57 57 57 57 57 57 57 57 57 57 57 57 55 54 54 54 54 53 53 54 55 55 56 57 57 58 58 58 59 59 60 60 61 61 62 63 64 65 66 67 68 68 69 70 71 71 72 72 73 73 73 73 73 73 73 73 73 74 74 74 74 72 69 66 63 61 59 58 56 55 53 51 50 50 51 55 60
52 53 54 55 55 56 56 57 57 56 56 56 56 57 57 56 56 55 55 55 55 55 54 54 53 52 52 52 53 54 54 55 56 57 58 58 59 59 60 60 61 61 62 63 64 65 66 67 68 68 69 70 71 72 72 73 74 74 74 75 75 75 75 76 76 77 77 76 75 73 70 67 64 61 59 58 57 57 56 55 54 53 52 52 53 56
52 53 54 54 54 55 55 56 56 55 55 55 56 56 56 55 55 55 55 55 55 55 54 53 53 53 53 53 53 54 55 55 56 57 57 58 59 59 60 60 61 62 63 64 65 66 67 67 68 69 70 71 72 73 73 74 74 75 75 76 77 77 78 79 79 78 77 75 73 71 68 65 63 61 60 59 58 58 58 58 58 57 56 55 55 56
51 52 52 53 53 54 54 55 55 55 55 55 55 55 55 55 54 54 54 54 54 54 54 53 53 54 54 54 54 55 55 56 56 57 57 58 59 60 60 61 62 63 63 64 65 66 68 68 70 71 71 72 73 74 75 75 76 76 77 78 79 80 80 79 78 77 75 73 71 70 68 67 65 63 62 62 61 61 61 61 61 61 60 59 59 58
50 50 50 51 51 51 52 52 53 53 53 53 53 53 53 52 52 52 53 53 53 54 54 54 54 54 54 54 55 55 56 56 57 58 58 59 60 60 61 62 63 63 64 66 67 68 69 70 71 72 72 73 74 75 75 76 77 78 79 80 80 79 78 77 76 75 74 73 72 71 70 70 69 68 67 66 65 65 65 64 64 63 63 63 62 62
47 47 47 48 48 48 48 49 49 49 49 50 50 51 51 51 52 52 53 53 54 54 54 54 54 54 55 55 55 56 56 57 58 58 59 60 60 61 62 63 64 65 66 67 67 68 69 70 71 72 73 74 75 76 77 78 79 79 79 78 77 76 76 75 74 74 74 74 73 73 73 72 71 70 69 68 67 66 66 66 66 65 65 65 65 64
43 44 45 45 46 46 46 47 47 48 48 49 50 51 51 52 52 53 54 54 54 54 55 55 55 55 55 56 56 57 57 58 59 59 60 61 61 62 63 64 65 66 66 67 68 69 70 71 72 73 74 75 76 77 77 77 76 76 75 75 74 74 74 74 74 75 75 74 74 73 72 71 70 69 67 66 65 64 63 63 64 64 65 66 66 66
41 42 43 44 45 46 47 47 48 48 49 50 50 51 52 52 53 54 54 54 54 54 55 55 55 56 56 57 57 58 58 59 60 60 61 62 62 63 64 65 66 67 67 68 69 70 71 72 73 73 74 74 74 73 73 73 73 73 73 74 74 74 74 74 74 74 73 72 71 69 68 67 65 64 63 63 62 62 62 62 61 61 63 64 66 67
Wind_Direction
232 232 230 228 227 225 225 226 228 229 230 231 233 236 235 236 235 230 229 231 232 232 234 237 239 239 240 240 241 242 244 245 246 247 248 248 248 248 249 250 250 250 249 248 248 250 251 253 256 259 262 265 267 268 270 273 276 279 281 283 284 285 284 284 281 277 275 272 269 265 261 256 253 247 242 240 238 235 234 238 239 239 240 239 241 245
232 231 230 229 227 225 224 223 225 227 228 229 232 234 234 234 235 231 228 230 231 231 232 234 237 239 240 240 241 243 244 245 246 247 247 247 248 248 249 249 249 249 248 246 246 247 250 254 257 259 263 265 267 269 271 275 278 282 284 286 288 289 288 285 282 279 276 273 270 267 263 257 252 247 242 238 236 235 234 234 234 235 242 245 246 248
234 231 230 230 227 225 223 222 224 225 226 227 229 231 231 232 234 232 228 230 231 231 232 234 235 237 238 239 240 241 243 244 245 246 246 247 247 247 248 249 249 248 247 246 246 247 251 255 257 260 262 265 267 270 273 276 280 283 285 288 291 293 292 289 286 282 278 274 270 267 264 259 253 248 243 237 233 231 232 234 235 240 246 247 246 247
234 231 230 229 228 226 224 223 224 224 224 225 227 229 229 231 233 232 229 230 232 233 234 234 234 235 237 238 239 240 242 244 245 245 245 245 245 246 247 248 247 246 246 246 247 248 251 254 256 259 262 265 268 271 274 277 280 283 286 290 293 295 294 293 290 286 281 276 271 267 264 260 255 251 246 240 233 228 228 232 234 237 241 241 241 244
232 231 229 228 227 226 224 223 223 222 223 224 226 228 229 231 233 231 228 228 231 233 234 234 234 235 237 238 239 240 241 243 244 244 244 244 245 246 246 246 246 245 246 247 248 249 251 254 257 259 262 265 268 271 274 278 280 283 287 291 295 296 296 295 292 289 284 280 274 269 264 261 257 252 247 242 236 229 226 228 231 235 236 237 239 242
231 230 229 228 226 225 224 224 222 221 223 224 226 227 228 230 232 230 228 229 231 234 235 234 234 236 237 238 239 240 240 241 243 243 242 243 244 245 245 245 245 245 246 248 249 250 252 254 257 259 262 265 269 272 275 278 281 284 289 293 295 297 297 297 294 290 286 282 278 273 268 264 260 256 250 244 239 233 228 227 230 236 237 237 239 239
230 230 229 228 227 225 224 223 221 221 222 223 224 226 227 229 230 229 229 230 232 234 235 234 234 235 236 237 239 238 238 238 240 241 242 242 243 244 244 244 245 245 246 248 249 251 253 255 257 260 262 265 268 272 275 278 281 285 290 294 296 297 298 298 296 292 287 284 281 278 273 269 264 259 254 248 241 236 232 229 230 236 240 240 240 237
230 230 229 228 227 226 225 223 221 221 222 223 223 225 226 227 228 228 227 229 231 232 233 233 233 235 236 238 239 238 236 236 238 240 240 241 242 243 244 245 245 246 247 248 249 251 253 255 257 260 262 265 268 271 275 278 281 286 290 294 296 298 299 300 298 294 291 289 286 284 280 274 269 263 257 251 245 238 234 233 234 237 241 241 237 232
231 230 228 227 227 226 225 224 221 220 222 222 222 224 225 225 226 225 224 226 229 230 231 232 234 236 237 239 240 238 235 235 236 238 239 240 241 242 244 246 247 248 248 249 249 250 252 254 257 259 261 264 267 270 274 277 281 286 290 293 295 297 299 300 299 297 294 291 289 287 284 278 273 267 260 253 247 241 236 235 236 236 235 233 228 224
229 229 227 226 226 225 224 224 221 220 221 222 221 222 224 223 223 222 222 224 227 229 230 232 235 237 237 238 241 240 236 234 234 237 239 240 241 242 244 246 248 249 250 249 249 249 251 254 256 259 262 264 267 270 274 277 281 285 289 292 294 296 298 299 298 296 293 291 288 286 283 280 276 271 266 258 249 244 237 234 234 231 228 226 224 223
228 226 225 225 226 224 223 223 221 220 222 222 220 221 223 222 221 221 222 224 228 230 231 232 235 237 238 237 238 240 238 234 233 235 238 239 241 242 244 246 248 249 250 250 250 250 251 253 256 259 261 264 267 270 273 277 281 285 289 291 293 295 297 297 297 294 292 291 290 288 284 279 275 271 268 263 254 246 239 233 229 225 224 224 222 222
227 225 224 224 225 223 222 221 219 220 223 222 220 221 222 221 220 220 222 224 228 231 232 234 236 238 238 236 235 238 238 236 233 234 237 240 241 242 243 245 248 250 252 252 251 251 252 253 256 258 261 263 267 270 273 277 281 285 289 291 292 294 295 296 296 296 295 294 293 292 288 282 274 269 267 266 261 252 243 234 226 222 221 220 217 217
226 225 224 225 224 222 222 221 218 219 222 221 220 223 223 221 220 221 222 225 229 231 231 233 235 236 237 236 235 236 237 238 236 234 236 240 242 242 242 245 248 251 253 253 251 251 252 253 255 258 261 263 267 270 273 277 281 285 289 290 291 292 294 295 296 298 298 297 296 294 292 287 279 270 265 265 264 259 249 237 227 220 218 217 216 215
226 225 223 224 224 222 222 221 219 221 222 221 222 225 225 224 223 223 224 227 230 230 231 233 233 235 238 238 237 237 237 238 237 234 235 238 241 243 243 244 248 251 252 252 251 251 252 253 255 258 260 263 267 270 273 277 282 286 288 290 291 292 293 295 298 300 300 299 299 297 294 290 283 274 264 259 260 259 252 240 228 221 217 216 217 217
224 224 224 225 225 224 223 221 220 221 222 221 223 225 225 225 224 224 225 227 229 230 231 233 233 235 239 238 238 239 239 239 239 237 235 237 240 242 242 244 247 250 252 251 250 250 252 253 255 258 260 264 267 270 274 278 282 286 288 289 290 291 293 296 299 301 301 301 301 300 298 294 288 279 266 257 252 251 252 243 228 220 219 219 218 217
221 223 223 223 223 224 223 220 219 220 220 220 223 224 225 225 224 224 225 225 226 228 230 232 234 236 239 238 238 239 239 239 241 240 238 237 239 241 242 243 245 248 251 251 250 250 252 254 255 258 261 264 267 270 274 278 282 286 288 289 290 291 294 298 299 301 302 303 304 305 303 299 294 285 274 261 250 249 251 240 224 219 220 225 224 220
221 221 221 219 219 220 219 218 217 218 219 221 223 224 226 227 227 227 228 228 228 228 230 233 234 235 235 234 236 238 238 239 242 242 241 238 238 240 241 242 244 247 250 251 250 250 252 254 255 258 261 264 267 270 275 279 283 286 288 289 290 292 295 297 299 301 304 306 308 308 306 302 297 291 282 268 251 248 246 234 226 219 214 223 229 225
219 220 220 217 217 216 215 215 215 216 218 220 223 224 226 227 227 227 228 229 229 229 230 232 233 232 232 231 234 238 239 239 241 241 242 240 239 239 241 243 244 246 249 251 250 250 252 254 255 258 261 264 267 271 275 278 282 285 287 288 290 292 295 296 299 302 305 307 309 309 307 302 297 293 287 275 252 244 239 228 225 220 213 220 227 227
214 216 216 214 214 213 212 213 214 214 216 219 222 224 225 227 229 229 229 230 232 231 230 231 231 231 231 231 233 236 238 239 239 240 241 241 240 239 240 242 244 246 248 250 250 250 252 254 256 258 261 264 268 271 275 278 281 284 285 286 289 291 294 296 299 303 306 308 309 310 308 303 298 294 289 279 255 241 236 227 223 222 221 223 221 224
211 214 212 211 212 210 210 212 213 214 216 218 221 223 226 228 230 232 232 233 234 232 230 230 230 232 232 231 232 234 236 238 239 241 242 242 241 240 239 241 243 246 248 250 250 250 252 254 256 259 262 265 268 271 274 278 281 283 284 286 289 292 294 296 300 304 307 308 310 310 309 305 300 296 290 281 260 240 234 228 222 220 221 223 221 223
208 211 210 208 209 209 209 211 212 214 216 219 222 225 228 229 231 233 231 231 231 229 228 228 228 230 231 232 234 235 236 238 240 242 243 244 244 243 241 241 243 245 248 250 251 250 252 254 256 259 262 265 269 271 274 278 280 282 284 287 289 292 295 298 301 305 307 309 310 311 310 306 302 299 292 281 262 240 233 227 219 215 216 218 220 224
206 209 209 208 209 209 209 209 211 214 215 217 221 225 227 229 232 233 232 230 230 229 229 229 229 229 229 231 236 238 237 238 240 241 243 244 244 244 242 242 243 245 247 250 251 250 252 254 256 259 262 266 269 271 275 278 280 282 285 288 290 293 296 298 302 305 307 309 310 311 311 308 303 300 294 281 261 238 229 224 216 216 219 217 215 220
206 208 209 208 209 209 208 207 210 213 214 215 219 222 224 226 229 232 232 232 232 231 231 231 231 229 227 227 232 238 238 237 240 241 242 243 244 244 243 242 243 244 247 250 251 251 252 253 256 259 263 266 268 271 275 277 279 282 285 288 291 293 296 299 302 305 307 308 310 311 312 309 304 301 296 282 262 237 225 220 215 216 221 219 214 217
207 208 209 208 208 208 207 207 208 210 212 215 219 221 222 224 227 230 232 232 232 232 232 232 230 228 226 225 228 233 236 236 239 241 242 243 244 244 243 243 244 245 248 250 251 250 251 253 256 259 262 265 268 271 274 277 279 282 286 288 291 293 296 299 301 303 306 307 309 311 312 310 305 303 298 284 263 239 225 219 216 216 220 221 219 220
207 209 209 208 208 208 208 208 208 209 211 214 217 220 222 224 226 228 231 231 230 230 231 231 229 226 225 227 228 230 232 235 238 240 241 243 244 244 244 244 245 246 248 250 251 251 251 253 256 259 262 264 268 271 273 276 279 282 285 287 290 292 295 298 300 302 305 307 308 310 312 311 306 304 299 286 266 243 227 220 218 218 219 223 223 224
206 207 208 207 208 210 211 213 213 212 212 214 217 220 222 224 226 229 233 234 233 233 232 231 229 226 225 227 229 229 230 234 237 239 241 242 244 245 245 246 246 247 249 250 250 250 251 253 256 258 261 264 267 270 272 275 278 281 284 286 289 291 294 296 299 301 304 306 307 309 311 311 308 304 300 288 269 247 230 222 220 219 218 220 222 224
205 206 207 207 207 209 210 212 214 214 215 216 218 222 224 226 227 230 233 235 235 236 234 232 230 228 226 228 231 232 232 234 237 240 242 243 243 244 245 246 247 247 249 250 251 251 252 254 256 259 261 264 267 269 272 275 277 280 283 285 288 290 293 295 298 300 303 305 306 308 311 312 309 306 301 288 270 251 235 225 222 221 220 221 223 225
203 204 205 207 208 209 209 209 211 213 215 217 219 222 225 227 229 231 233 234 235 234 233 231 229 228 228 228 231 234 235 236 238 240 241 242 243 243 245 246 247 248 250 251 251 252 253 255 257 259 262 264 266 269 271 274 276 279 282 284 286 289 292 294 297 299 301 304 305 307 310 312 309 306 300 287 269 252 238 228 224 223 224 225 226 227
201 203 204 206 207 209 210 210 211 212 214 217 219 221 223 225 228 230 232 234 234 232 231 231 230 229 229 229 230 233 236 238 239 240 241 241 242 243 244 246 248 249 251 252 252 253 254 256 258 260 262 264 266 269 271 273 276 278 280 283 285 288 291 293 295 298 300 302 304 305 309 312 310 306 300 286 266 249 237 230 226 224 226 227 227 227
201 203 205 207 208 208 209 211 213 214 215 217 220 222 224 225 228 231 232 232 231 229 229 231 230 229 229 230 232 234 236 238 240 241 241 242 243 244 245 246 248 249 251 252 253 253 255 256 258 260 262 264 266 269 271 273 275 278 280 282 285 287 290 292 294 297 299 301 303 304 307 311 310 305 299 285 263 246 237 231 226 224 225 226 227 227
202 204 205 208 209 210 211 212 214 216 217 219 221 224 225 227 230 231 230 228 228 227 228 229 230 231 231 232 234 236 237 239 241 241 242 242 243 244 245 247 248 249 251 253 253 254 255 257 259 261 262 264 267 269 271 273 275 277 280 282 285 287 289 292 293 296 298 300 301 303 305 309 310 306 299 286 261 242 236 234 229 225 224 225 226 226
203 205 206 208 211 212 213 215 217 219 221 222 224 226 227 227 227 227 225 223 224 226 227 228 230 233 234 235 236 238 239 240 241 241 242 242 243 244 245 246 248 249 251 253 254 255 256 257 259 261 263 265 267 269 271 273 275 278 280 282 284 286 288 290 292 294 297 299 300 302 303 307 309 307 299 289 266 242 235 236 234 229 227 226 225 225
203 205 208 211 213 215 216 218 220 222 225 226 227 228 227 224 222 222 221 221 221 224 226 229 231 234 236 237 238 239 240 241 242 242 242 243 244 244 246 247 248 250 251 252 254 255 256 258 260 262 264 266 268 270 272 274 276 277 279 281 283 286 287 289 291 294 296 297 298 300 302 304 307 306 300 291 274 248 235 235 237 235 231 228 225 223
201 205 208 210 213 215 215 215 218 220 222 223 223 224 223 220 218 219 219 219 219 220 223 227 231 233 235 236 238 240 241 242 243 244 243 244 244 245 247 248 249 251 252 253 255 256 257 259 261 263 265 267 269 270 272 274 276 277 279 281 283 285 287 288 291 293 294 295 296 297 299 301 304 305 300 291 279 258 240 234 236 238 236 233 228 224
197 202 205 206 208 210 209 209 210 213 215 216 217 218 219 218 217 218 219 219 219 219 221 225 228 231 233 235 238 240 243 244 244 244 244 244 244 245 246 248 250 251 253 254 256 257 258 260 262 264 266 267 269 271 273 274 275 277 279 281 283 285 286 288 289 291 292 293 294 295 297 299 301 302 300 292 282 267 248 237 235 237 238 237 233 228
193 197 201 204 206 206 205 205 207 209 212 213 214 215 216 217 217 217 217 219 221 223 225 227 229 231 233 236 239 241 244 245 245 244 244 244 245 246 247 249 251 252 254 256 257 258 260 262 263 265 267 268 270 271 273 274 275 277 279 281 283 284 285 287 288 290 291 291 292 294 295 296 298 300 299 293 283 272 257 244 237 235 237 238 236 232
193 196 200 205 207 207 207 208 209 211 213 214 215 216 216 216 217 217 217 219 222 226 229 231 233 235 237 239 241 242 244 245 245 245 246 246 247 248 249 251 252 254 256 257 258 259 261 262 264 265 266 268 270 271 272 274 275 277 279 280 282 283 284 286 288 289 290 290 291 292 292 293 295 297 297 293 284 275 264 251 242 237 236 237 237 234
196 199 203 207 209 209 211 212 214 214 214 214 214 215 216 216 216 217 218 220 223 226 230 232 235 237 239 241 243 244 245 246 247 247 247 248 249 249 251 252 254 255 257 258 259 260 261 263 264 265 267 268 270 271 272 274 275 277 278 280 281 282 284 285 287 288 288 289 289 289 290 291 293 294 294 291 285 277 267 257 247 241 237 236 237 236
199 202 205 208 210 209 209 210 212 214 214 214 214 214 215 216 217 219 221 223 225 227 230 233 235 238 241 243 244 245 246 247 247 248 248 249 250 250 251 253 254 256 257 259 260 261 262 263 264 266 267 268 270 271 272 274 275 277 278 280 281 282 284 285 286 287 287 287 288 288 289 290 291 292 292 289 284 277 270 261 252 245 240 237 236 236
199 201 204 206 207 208 208 207 208 211 213 214 215 216 218 220 221 222 223 225 227 229 231 234 237 240 243 245 246 247 247 247 248 248 248 249 250 250 252 253 255 256 257 259 260 261 262 263 265 266 268 269 270 271 272 274 275 277 278 280 281 282 284 285 286 286 286 286 286 287 288 289 290 291 290 287 283 277 271 264 256 249 244 240 237 236
198 199 201 203 205 207 209 210 211 213 214 216 217 218 220 222 224 225 226 228 230 232 234 237 240 243 245 247 248 248 248 248 248 248 249 249 250 251 252 253 255 256 257 259 260 261 262 264 265 267 268 270 271 272 273 275 277 278 279 280 281 282 283 284 285 285 285 285 285 285 286 288 289 289 288 285 281 277 272 266 259 253 247 242 240 238
197 199 201 203 205 208 211 213 214 215 216 218 219 220 222 224 226 228 230 232 235 236 238 241 243 245 247 248 248 249 250 250 249 250 250 251 251 252 253 254 255 257 258 260 261 263 264 265 266 268 269 271 272 274 275 277 278 279 280 281 282 283 283 284 284 284 284 284 284 285 286 287 287 287 285 282 279 276 272 266 261 256 251 245 242 240
198 200 203 205 206 209 212 215 217 217 218 219 221 223 224 226 228 230 232 235 238 240 242 243 245 247 248 249 249 249 250 251 251 251 252 252 253 253 254 255 256 258 259 261 262 264 265 266 268 269 271 272 274 275 276 278 279 280 280 281 282 283 283 283 283 283 284 284 284 285 285 286 285 284 282 280 277 274 271 267 262 258 255 250 244 241
199 202 205 207 208 211 213 217 219 220 221 223 224 226 228 230 232 234 236 239 242 243 245 246 248 249 249 249 249 250 250 251 251 252 252 253 254 255 256 257 258 259 261 262 263 265 266 268 269 271 272 273 275 276 277 278 279 280 281 281 282 282 283 283 283 283 284 284 285 285 285 284 283 282 280 277 275 272 270 267 263 260 257 254 249 244
203 205 208 209 211 214 216 219 222 223 225 227 229 231 233 235 237 239 241 243 245 246 247 248 248 248 248 249 249 250 250 251 251 252 253 254 255 256 257 258 260 261 262 264 265 267 268 270 271 272 273 275 276 277 278 279 280 281 281 282 282 283 283 283 284 284 285 285 285 284 284 283 281 280 278 276 274 272 270 268 265 263 260 257 254 249
208 210 212 214 216 218 220 223 225 227 229 231 233 235 237 239 241 243 244 245 247 247 248 248 247 246 247 248 249 250 250 251 252 253 254 255 257 258 259 260 262 263 264 266 267 269 270 271 272 273 274 275 276 277 278 279 280 280 281 282 282 283 284 284 284 285 285 284 284 283 282 281 280 278 276 274 273 271 270 269 267 265 263 260 257 253
214 216 218 220 221 223 225 228 229 231 233 235 237 238 240 241 243 244 245 245 246 246 247 247 247 248 248 249 250 251 252 254 255 256 257 258 259 261 262 263 264 265 266 268 269 270 271 272 273 274 275 276 277 278 278 279 280 281 281 282 283 283 284 284 284 284 284 284 283 283 282 281 280 278 276 274 272 271 269 268 267 266 264 262 259 256
222 223 225 227 228 229 231 232 234 235 236 238 239 239 241 242 242 243 244 244 245 246 246 247 248 249 250 251 252 253 254 255 257 258 259 260 261 262 263 265 266 267 268 269 270 271 272 273 274 275 276 277 278 279 279 280 281 282 282 283 283 283 283 283 283 283 283 283 283 283 282 281 280 279 277 275 274 272 270 267 266 264 262 261 260 258
228 228 229 230 231 231 232 234 235 236 237 237 238 239 240 241 242 243 244 245 246 247 248 249 250 251 252 253 254 255 256 257 258 259 260 261 262 263 264 265 266 267 268 269 270 271 272 273 275 276 277 278 279 279 280 281 281 281 282 282 282 283 283 283 283 283 283 283 283 282 282 281 281 280 279 277 275 273 271 268 266 263 261 259 258 257
228 229 229 230 231 231 232 233 234 235 236 236 237 238 239 241 242 243 244 245 247 248 250 251 252 253 254 255 256 257 257 258 259 260 261 262 263 264 265 266 267 267 269 270 271 272 273 274 275 276 277 278 278 279 279 280 280 281 281 282 282 283 283 283 283 284 284 284 283 283 283 282 282 281 280 278 277 275 272 269 266 264 261 258 256 255
229 230 231 231 231 232 233 234 234 236 237 238 238 240 241 242 243 244 246 247 248 250 251 252 253 254 255 256 257 257 258 259 260 261 262 263 264 265 266 267 267 269 270 271 272 273 273 274 275 276 277 277 278 278 279 280 281 281 282 283 283 284 284 284 285 285 285 285 285 285 284 283 282 281 279 277 276 275 273 271 268 265 262 260 258 256
Height
10592 10596 10606 10616 10621 10625 10627 10629 10632 10634 10636 10641 10644 10647 10654 10656 10659 10668 10672 10673 10675 10679 10679 10676 10681 10690 10693 10697 10700 10702 10705 10708 10712 10716 10720 10722 10724 10725 10725 10728 10730 10733 10738 10739 10739 10738 10739 10740 10741 10742 10742 10743 10744 10744 10744 10745 10745 10745 10746 10746 10747 10747 10746 10744 10743 10741 10739 10738 10737 10737 10738 10739 10740 10742 10744 10745 10747 10750 10752 10753 10753 10753 10754 10756 10756 10756
10586 10594 10605 10609 10612 10615 10617 10622 10624 10626 10632 10638 10640 10642 10648 10650 10652 10661 10669 10669 10670 10673 10671 10671 10679 10684 10686 10691 10695 10698 10700 10703 10707 10712 10715 10716 10718 10719 10719 10722 10726 10730 10733 10734 10734 10734 10734 10736 10737 10737 10738 10738 10738 10739 10740 10740 10740 10739 10739 10739 10739 10739 10739 10737 10735 10734 10732 10731 10730 10730 10731 10731 10732 10734 10736 10739 10741 10745 10747 10748 10749 10749 10751 10752 10752 10753
10583 10594 10599 10600 10602 10605 10610 10615 10616 10620 10628 10633 10634 10635 10641 10644 10645 10655 10665 10665 10664 10664 10663 10669 10677 10678 10680 10685 10690 10693 10695 10698 10703 10706 10709 10711 10712 10713 10714 10717 10721 10725 10728 10729 10729 10729 10730 10732 10733 10733 10733 10733 10733 10735 10736 10736 10735 10734 10733 10732 10732 10732 10732 10730 10729 10727 10726 10725 10725 10724 10724 10724 10726 10727 10728 10731 10735 10739 10741 10743 10744 10746 10748 10748 10748 10750
10580 10588 10589 10589 10593 10598 10605 10607 10609 10617 10625 10627 10626 10629 10635 10637 10639 10652 10662 10660 10658 10658 10660 10668 10671 10669 10673 10679 10684 10688 10692 10695 10699 10701 10703 10705 10707 10708 10710 10713 10716 10720 10723 10723 10723 10724 10727 10728 10728 10728 10728 10728 10729 10730 10731 10730 10729 10728 10727 10727 10726 10726 10725 10724 10722 10720 10719 10718 10718 10718 10717 10718 10719 10721 10722 10724 10728 10732 10735 10737 10738 10739 10740 10740 10742 10745
10573 10576 10575 10579 10585 10592 10597 10599 10605 10615 10619 10619 10620 10625 10630 10631 10637 10649 10655 10653 10652 10652 10656 10664 10665 10663 10669 10675 10679 10685 10688 10691 10694 10697 10699 10700 10701 10703 10706 10708 10711 10715 10718 10717 10717 10719 10722 10723 10723 10724 10723 10723 10724 10725 10726 10725 10724 10722 10722 10721 10721 10720 10719 10718 10716 10714 10712 10711 10711 10711 10711 10711 10712 10714 10716 10718 10721 10725 10728 10730 10731 10730 10731 10732 10735 10738
10563 10564 10567 10574 10579 10585 10590 10593 10602 10609 10610 10612 10616 10621 10624 10626 10634 10644 10647 10647 10647 10648 10654 10661 10660 10659 10664 10670 10674 10680 10684 10687 10690 10692 10694 10695 10696 10698 10700 10702 10706 10711 10712 10712 10712 10714 10717 10719 10719 10719 10719 10719 10719 10719 10720 10719 10718 10717 10717 10716 10716 10715 10713 10712 10711 10709 10706 10705 10704 10704 10705 10705 10706 10707 10710 10712 10715 10719 10721 10723 10724 10724 10726 10727 10730 10732
10553 10558 10564 10569 10574 10579 10584 10588 10596 10600 10603 10607 10612 10615 10616 10621 10630 10638 10642 10644 10644 10646 10651 10656 10654 10653 10660 10665 10670 10676 10680 10683 10685 10687 10690 10691 10692 10693 10694 10697 10701 10705 10706 10706 10708 10709 10712 10714 10714 10714 10714 10714 10714 10714 10714 10714 10713 10712 10712 10711 10710 10709 10708 10706 10705 10704 10701 10699 10698 10699 10699 10700 10701 10701 10703 10706 10709 10712 10714 10716 10717 10719 10721 10724 10726 10727
10549 10554 10558 10563 10569 10575 10578 10583 10590 10594 10597 10601 10605 10608 10611 10618 10626 10634 10639 10639 10639 10641 10645 10649 10648 10648 10655 10661 10665 10672 10675 10678 10680 10683 10685 10686 10688 10689 10689 10692 10696 10699 10701 10702 10703 10705 10706 10708 10709 10710 10710 10710 10710 10709 10709 10708 10708 10708 10707 10706 10705 10704 10702 10701 10700 10698 10696 10694 10693 10693 10693 10694 10695 10695 10697 10700 10702 10705 10707 10709 10711 10714 10718 10721 10723 10724
10543 10546 10552 10559 10564 10567 10572 10578 10583 10587 10589 10593 10598 10602 10606 10613 10621 10629 10633 10631 10633 10636 10640 10643 10643 10645 10653 10658 10661 10667 10670 10672 10676 10679 10681 10682 10683 10684 10685 10688 10691 10694 10696 10698 10699 10700 10702 10703 10704 10705 10705 10705 10705 10705 10704 10704 10704 10704 10703 10702 10701 10699 10697 10696 10694 10693 10691 10690 10689 10688 10688 10688 10688 10689 10691 10693 10695 10697 10700 10703 10706 10709 10714 10718 10719 10720
10532 10537 10546 10552 10555 10560 10567 10571 10575 10580 10582 10585 10591 10596 10601 10608 10617 10622 10624 10625 10627 10630 10635 10638 10639 10642 10649 10655 10658 10661 10665 10668 10673 10675 10675 10677 10678 10680 10681 10684 10687 10689 10691 10693 10694 10696 10697 10698 10699 10700 10700 10701 10701 10700 10700 10699 10699 10699 10699 10697 10696 10695 10693 10691 10690 10689 10687 10685 10685 10684 10683 10683 10683 10683 10684 10686 10688 10690 10693 10696 10700 10705 10709 10713 10714 10715
10523 10531 10540 10546 10549 10554 10559 10561 10569 10575 10574 10577 10586 10592 10596 10604 10611 10614 10619 10621 10620 10624 10632 10634 10636 10639 10645 10652 10654 10655 10660 10665 10669 10669 10669 10672 10673 10675 10677 10679 10682 10684 10686 10688 10690 10691 10692 10693 10694 10695 10695 10696 10696 10696 10695 10695 10695 10695 10694 10693 10691 10690 10688 10686 10685 10684 10683 10681 10680 10679 10679 10679 10679 10678 10678 10679 10681 10683 10686 10690 10694 10699 10704 10707 10708 10709
10519 10528 10537 10541 10542 10547 10551 10555 10563 10567 10564 10571 10585 10588 10591 10598 10605 10609 10615 10616 10615 10624 10632 10632 10634 10637 10640 10647 10649 10652 10657 10660 10663 10664 10664 10666 10668 10669 10672 10675 10677 10679 10681 10683 10685 10686 10687 10688 10689 10690 10690 10690 10691 10691 10690 10690 10690 10690 10689 10688 10686 10685 10683 10682 10680 10679 10679 10677 10676 10675 10674 10674 10675 10674 10673 10673 10674 10677 10680 10683 10688 10693 10698 10701 10702 10703
10518 10526 10533 10534 10534 10540 10545 10549 10555 10555 10556 10571 10583 10582 10586 10595 10600 10606 10611 10613 10617 10626 10629 10629 10631 10632 10634 10641 10646 10651 10655 10655 10657 10658 10659 10661 10662 10664 10667 10670 10673 10674 10676 10678 10680 10681 10682 10683 10684 10684 10685 10685 10686 10686 10685 10685 10685 10685 10684 10682 10681 10680 10678 10677 10676 10675 10674 10673 10672 10670 10669 10668 10669 10670 10669 10668 10668 10670 10673 10677 10681 10687 10691 10694 10696 10698
10515 10519 10524 10525 10529 10536 10539 10544 10550 10552 10560 10574 10579 10579 10586 10593 10599 10607 10611 10614 10619 10624 10624 10623 10624 10625 10630 10638 10644 10649 10651 10651 10651 10651 10653 10655 10656 10659 10662 10665 10668 10669 10671 10673 10674 10676 10677 10678 10679 10679 10679 10680 10680 10681 10681 10681 10681 10680 10679 10677 10676 10674 10673 10672 10671 10670 10668 10667 10666 10665 10664 10663 10663 10664 10665 10664 10663 10663 10666 10670 10674 10679 10684 10688 10691 10693
10507 10513 10519 10523 10528 10534 10537 10543 10549 10553 10562 10571 10573 10576 10582 10588 10597 10604 10607 10611 10616 10617 10617 10616 10618 10623 10629 10636 10640 10643 10644 10643 10644 10646 10648 10650 10651 10654 10656 10659 10662 10663 10665 10667 10668 10670 10671 10673 10674 10673 10674 10675 10675 10675 10675 10676 10676 10675 10673 10672 10670 10669 10668 10667 10665 10664 10663 10662 10661 10658 10657 10656 10656 10657 10659 10659 10657 10657 10659 10663 10666 10671 10678 10682 10685 10687
10502 10508 10513 10518 10523 10528 10533 10540 10544 10549 10557 10562 10565 10570 10577 10585 10594 10597 10599 10604 10607 10607 10608 10609 10614 10622 10629 10633 10634 10635 10636 10637 10639 10641 10644 10645 10647 10648 10651 10653 10656 10658 10660 10661 10663 10665 10666 10668 10668 10668 10669 10669 10670 10670 10670 10671 10670 10669 10668 10666 10665 10663 10662 10662 10660 10659 10658 10656 10654 10652 10650 10648 10648 10649 10651 10652 10651 10651 10654 10658 10660 10665 10673 10678 10679 10681
10498 10501 10502 10507 10513 10520 10528 10533 10538 10545 10552 10557 10561 10569 10577 10583 10587 10591 10595 10598 10599 10602 10605 10607 10613 10621 10625 10628 10628 10627 10630 10633 10634 10636 10638 10640 10641 10643 10645 10647 10650 10652 10654 10656 10658 10659 10661 10663 10663 10663 10664 10665 10665 10665 10665 10665 10665 10664 10663 10661 10659 10658 10658 10657 10655 10654 10652 10650 10648 10646 10644 10642 10641 10641 10642 10644 10644 10645 10649 10655 10657 10659 10664 10669 10672 10674
10491 10492 10495 10503 10509 10515 10522 10526 10533 10540 10546 10553 10560 10568 10573 10574 10577 10582 10586 10590 10594 10600 10604 10606 10610 10615 10619 10621 10621 10621 10624 10627 10629 10631 10633 10634 10635 10637 10638 10641 10644 10647 10649 10650 10652 10654 10656 10657 10657 10658 10659 10660 10660 10660 10660 10661 10660 10659 10658 10656 10655 10654 10653 10652 10650 10649 10646 10644 10642 10640 10638 10637 10635 10634 10634 10636 10637 10638 10642 10647 10650 10650 10652 10655 10661 10667
10481 10481 10488 10497 10502 10508 10514 10519 10526 10534 10542 10551 10557 10562 10564 10567 10573 10577 10583 10589 10593 10598 10602 10602 10605 10610 10612 10615 10615 10615 10618 10621 10623 10625 10627 10628 10629 10630 10632 10635 10639 10641 10643 10645 10647 10649 10651 10651 10652 10652 10654 10655 10655 10655 10656 10656 10656 10655 10653 10652 10651 10650 10649 10647 10645 10643 10641 10638 10636 10634 10632 10630 10629 10628 10627 10628 10629 10630 10632 10636 10639 10641 10645 10648 10653 10659
10474 10475 10483 10492 10495 10501 10507 10512 10522 10533 10541 10547 10550 10554 10559 10565 10571 10576 10582 10588 10590 10593 10597 10598 10601 10605 10606 10608 10609 10611 10614 10616 10618 10620 10622 10622 10623 10625 10628 10631 10634 10636 10638 10640 10643 10644 10645 10646 10646 10647 10648 10649 10650 10650 10651 10651 10651 10650 10648 10647 10646 10645 10643 10642 10640 10638 10635 10633 10630 10628 10625 10623 10622 10621 10620 10621 10622 10622 10624 10626 10629 10631 10636 10641 10647 10652
10468 10472 10480 10485 10488 10494 10502 10512 10525 10533 10538 10543 10549 10555 10559 10564 10568 10571 10577 10581 10583 10586 10589 10591 10596 10598 10600 10605 10607 10608 10610 10611 10614 10616 10617 10618 10619 10621 10624 10626 10628 10631 10633 10635 10638 10639 10640 10640 10641 10642 10643 10644 10644 10645 10645 10645 10645 10644 10643 10642 10641 10639 10637 10635 10634 10632 10630 10627 10625 10622 10619 10617 10615 10614 10613 10614 10615 10616 10617 10619 10623 10625 10628 10632 10638 10646
10464 10469 10476 10480 10486 10495 10506 10517 10524 10527 10532 10541 10547 10551 10555 10561 10564 10566 10572 10577 10579 10582 10584 10586 10589 10592 10598 10604 10603 10601 10603 10606 10609 10610 10611 10613 10615 10616 10618 10620 10622 10626 10628 10631 10633 10634 10635 10635 10636 10637 10639 10639 10639 10639 10640 10640 10639 10638 10637 10636 10635 10633 10631 10629 10628 10626 10624 10622 10620 10618 10614 10611 10609 10607 10607 10607 10608 10609 10610 10612 10616 10619 10623 10627 10631 10637
10462 10467 10473 10481 10489 10498 10506 10511 10515 10520 10529 10536 10538 10540 10548 10555 10558 10561 10568 10573 10575 10577 10579 10580 10582 10588 10595 10598 10595 10593 10596 10601 10603 10605 10606 10608 10609 10610 10612 10614 10617 10621 10623 10625 10627 10629 10630 10630 10631 10633 10634 10634 10634 10634 10634 10634 10633 10632 10631 10630 10629 10628 10626 10624 10622 10621 10619 10618 10616 10613 10610 10606 10603 10601 10600 10600 10602 10603 10603 10604 10608 10612 10617 10623 10626 10628
10461 10466 10473 10480 10487 10492 10498 10503 10508 10516 10522 10526 10530 10536 10545 10551 10554 10559 10563 10565 10568 10571 10572 10572 10575 10583 10590 10590 10588 10589 10593 10597 10598 10599 10602 10603 10604 10605 10607 10609 10613 10616 10618 10620 10622 10623 10624 10625 10626 10628 10629 10629 10629 10629 10629 10628 10627 10627 10626 10624 10623 10622 10621 10619 10617 10616 10614 10613 10611 10609 10605 10602 10599 10596 10594 10594 10595 10597 10598 10599 10602 10605 10610 10615 10620 10623
10459 10464 10470 10476 10480 10485 10490 10494 10500 10507 10513 10520 10528 10535 10542 10547 10551 10554 10555 10556 10560 10564 10565 10565 10569 10576 10581 10581 10582 10584 10588 10591 10592 10594 10596 10597 10599 10600 10602 10605 10608 10610 10613 10615 10616 10618 10618 10620 10621 10623 10624 10624 10624 10624 10623 10622 10622 10621 10621 10619 10617 10616 10615 10614 10612 10611 10609 10607 10606 10603 10601 10598 10594 10592 10589 10589 10589 10591 10592 10595 10597 10600 10604 10609 10614 10618
10455 10460 10466 10473 10479 10485 10491 10496 10502 10508 10514 10521 10527 10532 10538 10543 10547 10550 10550 10552 10557 10561 10560 10559 10563 10569 10573 10574 10576 10580 10583 10585 10587 10589 10591 10592 10594 10596 10597 10600 10602 10605 10607 10609 10610 10612 10613 10614 10616 10617 10618 10618 10619 10619 10617 10617 10617 10616 10615 10614 10612 10611 10610 10609 10607 10606 10604 10602 10601 10598 10596 10593 10590 10588 10585 10584 10584 10585 10587 10589 10592 10594 10598 10602 10607 10610
10454 10460 10467 10473 10479 10484 10490 10497 10504 10509 10514 10520 10525 10530 10535 10539 10543 10545 10544 10548 10554 10556 10554 10554 10558 10564 10567 10570 10573 10575 10578 10581 10583 10586 10587 10588 10590 10591 10593 10595 10596 10599 10601 10602 10605 10606 10607 10609 10610 10611 10612 10613 10614 10613 10612 10612 10611 10611 10610 10608 10607 10605 10604 10603 10602 10601 10599 10597 10596 10594 10592 10589 10586 10584 10582 10580 10580 10580 10582 10584 10586 10589 10592 10596 10599 10603
10455 10461 10467 10472 10476 10480 10485 10491 10498 10504 10510 10516 10521 10526 10529 10534 10537 10538 10539 10543 10547 10547 10547 10549 10554 10558 10562 10566 10568 10570 10573 10576 10579 10581 10583 10584 10585 10586 10588 10589 10591 10593 10595 10597 10599 10601 10602 10603 10604 10605 10606 10607 10607 10607 10607 10606 10605 10605 10604 10603 10602 10600 10599 10598 10597 10595 10593 10592 10591 10589 10587 10585 10582 10580 10578 10576 10576 10576 10577 10579 10581 10584 10586 10589 10593 10596
10454 10460 10465 10469 10474 10480 10486 10491 10495 10500 10505 10510 10515 10518 10523 10527 10529 10529 10533 10538 10540 10541 10543 10546 10550 10554 10557 10561 10564 10566 10569 10572 10574 10576 10577 10579 10580 10581 10583 10584 10586 10587 10589 10591 10594 10595 10596 10597 10598 10599 10600 10600 10601 10601 10601 10601 10600 10599 10599 10598 10597 10595 10594 10592 10591 10590 10588 10586 10585 10584 10583 10581 10578 10576 10574 10573 10573 10573 10573 10574 10576 10578 10581 10583 10586 10590
10454 10459 10464 10468 10472 10478 10483 10488 10492 10497 10501 10506 10510 10513 10517 10519 10521 10523 10529 10534 10535 10537 10540 10543 10546 10550 10554 10557 10560 10562 10565 10566 10568 10571 10572 10574 10575 10577 10578 10579 10580 10582 10584 10586 10588 10590 10591 10592 10592 10593 10593 10594 10594 10594 10595 10595 10594 10594 10593 10592 10591 10590 10589 10587 10585 10584 10582 10580 10579 10578 10578 10576 10574 10572 10571 10569 10570 10569 10569 10570 10572 10573 10575 10577 10580 10583
10453 10457 10463 10467 10471 10476 10481 10485 10489 10494 10499 10502 10504 10507 10510 10513 10517 10521 10526 10529 10531 10533 10535 10538 10542 10546 10550 10553 10555 10558 10560 10562 10564 10566 10567 10569 10570 10572 10573 10573 10574 10576 10579 10581 10583 10585 10586 10586 10586 10586 10587 10587 10588 10588 10589 10588 10588 10588 10587 10586 10585 10584 10583 10581 10580 10577 10576 10575 10573 10572 10572 10571 10570 10568 10567 10566 10566 10566 10566 10566 10567 10569 10570 10571 10574 10577
10449 10455 10461 10465 10468 10473 10478 10483 10488 10492 10495 10497 10498 10501 10505 10510 10514 10517 10520 10524 10526 10528 10531 10536 10540 10543 10546 10549 10551 10553 10555 10557 10558 10560 10562 10564 10565 10566 10567 10568 10569 10571 10574 10576 10577 10579 10580 10580 10580 10580 10580 10581 10582 10582 10582 10582 10582 10582 10581 10580 10579 10578 10577 10575 10574 10572 10570 10569 10568 10567 10566 10566 10565 10564 10562 10561 10562 10562 10562 10562 10563 10564 10565 10567 10569 10572
10447 10453 10459 10462 10466 10470 10476 10482 10486 10488 10489 10491 10494 10496 10501 10506 10510 10513 10516 10519 10522 10526 10530 10534 10536 10538 10541 10544 10546 10548 10549 10551 10553 10555 10557 10559 10560 10561 10562 10563 10564 10566 10568 10571 10572 10573 10574 10574 10574 10574 10574 10576 10576 10575 10575 10576 10576 10575 10574 10574 10573 10572 10571 10569 10568 10566 10564 10563 10562 10561 10560 10560 10559 10559 10558 10557 10557 10558 10558 10558 10558 10559 10561 10562 10564 10566
10446 10451 10455 10459 10464 10468 10474 10479 10482 10483 10485 10488 10491 10494 10498 10503 10507 10510 10513 10517 10520 10523 10527 10529 10531 10534 10537 10539 10540 10542 10544 10546 10548 10550 10552 10554 10555 10556 10557 10558 10559 10560 10563 10565 10566 10567 10567 10568 10568 10568 10569 10570 10569 10569 10569 10569 10569 10568 10567 10567 10567 10566 10565 10563 10562 10560 10559 10557 10556 10555 10554 10553 10553 10553 10553 10552 10552 10552 10553 10554 10554 10554 10556 10558 10560 10561
10444 10449 10453 10458 10462 10465 10470 10475 10477 10480 10483 10485 10488 10491 10496 10500 10504 10507 10510 10513 10516 10518 10521 10524 10527 10529 10531 10533 10536 10537 10539 10542 10543 10545 10547 10548 10549 10550 10551 10553 10554 10555 10557 10559 10560 10561 10562 10562 10562 10563 10563 10563 10563 10563 10563 10562 10561 10561 10560 10560 10560 10559 10558 10556 10555 10554 10553 10551 10550 10549 10548 10547 10547 10547 10547 10547 10546 10546 10547 10548 10549 10549 10550 10552 10554 10556
10443 10447 10451 10455 10459 10463 10467 10471 10474 10477 10480 10483 10486 10489 10492 10495 10499 10503 10506 10509 10512 10515 10518 10520 10523 10525 10527 10529 10531 10533 10534 10536 10538 10539 10541 10542 10544 10545 10546 10548 10549 10550 10551 10553 10554 10555 10555 10556 10556 10556 10556 10556 10556 10556 10556 10555 10554 10554 10554 10554 10553 10552 10551 10549 10548 10548 10547 10545 10544 10543 10542 10541 10540 10540 10541 10541 10541 10541 10541 10542 10543 10544 10545 10546 10548 10550
10442 10445 10449 10452 10456 10461 10465 10468 10471 10474 10477 10480 10483 10486 10489 10492 10496 10500 10503 10506 10509 10512 10514 10516 10518 10520 10522 10523 10526 10528 10529 10531 10533 10534 10536 10537 10538 10540 10541 10542 10543 10545 10546 10546 10547 10548 10549 10550 10550 10549 10549 10550 10550 10550 10549 10548 10548 10548 10547 10547 10546 10545 10544 10542 10542 10541 10540 10539 10538 10537 10536 10535 10534 10534 10534 10534 10535 10534 10534 10535 10536 10538 10539 10540 10542 10543
10442 10445 10448 10450 10453 10458 10462 10466 10468 10469 10472 10476 10479 10483 10486 10489 10492 10495 10498 10501 10504 10507 10510 10512 10513 10515 10517 10519 10521 10523 10525 10526 10528 10529 10530 10531 10533 10534 10535 10536 10538 10539 10539 10540 10541 10541 10542 10543 10543 10542 10543 10543 10543 10542 10542 10541 10541 10540 10540 10539 10539 10538 10537 10536 10535 10534 10533 10532 10531 10530 10529 10528 10527 10527 10527 10527 10528 10528 10527 10527 10528 10530 10532 10534 10535 10536
10441 10444 10446 10448 10452 10456 10459 10461 10463 10466 10470 10473 10476 10479 10482 10485 10488 10491 10495 10498 10501 10504 10506 10507 10508 10510 10512 10514 10516 10518 10519 10521 10522 10523 10524 10526 10527 10528 10530 10531 10531 10532 10533 10533 10534 10535 10535 10536 10536 10535 10536 10536 10536 10536 10535 10534 10534 10533 10532 10532 10531 10530 10529 10528 10527 10526 10526 10525 10523 10522 10521 10520 10520 10519 10519 10519 10520 10521 10521 10520 10520 10521 10523 10525 10527 10529
10439 10441 10444 10447 10450 10453 10455 10457 10460 10463 10466 10469 10472 10476 10479 10482 10484 10488 10492 10495 10496 10498 10500 10502 10503 10505 10507 10509 10510 10512 10513 10515 10516 10517 10519 10520 10521 10522 10524 10524 10525 10526 10526 10527 10527 10527 10528 10529 10529 10529 10529 10528 10528 10528 10527 10527 10526 10526 10525 10524 10523 10522 10521 10520 10519 10518 10518 10517 10515 10514 10513 10512 10511 10510 10510 10511 10511 10513 10513 10512 10512 10513 10514 10516 10519 10521
10436 10438 10441 10444 10447 10449 10452 10455 10458 10460 10462 10465 10469 10472 10475 10477 10480 10485 10489 10490 10491 10492 10495 10497 10499 10500 10501 10503 10504 10505 10506 10508 10510 10511 10512 10513 10515 10516 10518 10518 10518 10519 10519 10520 10520 10520 10521 10523 10522 10522 10521 10521 10520 10520 10520 10519 10519 10518 10517 10516 10515 10514 10513 10512 10511 10510 10509 10508 10507 10506 10505 10504 10503 10502 10501 10502 10502 10503 10504 10505 10504 10504 10505 10507 10509 10512
10433 10436 10438 10441 10444 10447 10450 10452 10453 10455 10458 10462 10465 10468 10471 10474 10478 10482 10484 10484 10484 10486 10490 10491 10493 10494 10495 10497 10498 10499 10500 10502 10504 10505 10506 10507 10509 10510 10512 10512 10512 10512 10513 10514 10514 10514 10515 10515 10515 10514 10514 10513 10513 10512 10512 10511 10510 10509 10508 10507 10506 10504 10504 10503 10502 10500 10500 10499 10498 10498 10497 10496 10494 10493 10493 10493 10493 10494 10495 10496 10496 10496 10496 10497 10500 10502
10429 10432 10435 10438 10441 10444 10446 10447 10448 10452 10456 10459 10462 10465 10468 10471 10474 10476 10477 10477 10478 10482 10484 10486 10488 10488 10490 10491 10492 10493 10494 10496 10498 10499 10500 10501 10502 10504 10505 10505 10506 10507 10508 10508 10508 10508 10508 10508 10508 10508 10507 10506 10505 10504 10503 10502 10501 10500 10499 10498 10496 10495 10494 10493 10492 10491 10490 10489 10488 10488 10487 10487 10486 10485 10484 10484 10484 10484 10485 10486 10487 10487 10487 10488 10490 10492
10427 10430 10432 10435 10438 10440 10442 10443 10445 10449 10453 10456 10459 10461 10464 10466 10468 10471 10472 10473 10474 10477 10479 10481 10482 10483 10484 10485 10486 10487 10489 10490 10491 10493 10493 10495 10496 10497 10498 10499 10500 10500 10501 10501 10501 10501 10501 10501 10500 10500 10499 10499 10497 10496 10495 10494 10492 10490 10489 10488 10486 10485 10484 10483 10482 10481 10480 10479 10478 10477 10477 10477 10476 10476 10475 10474 10474 10475 10475 10476 10477 10478 10479 10479 10481 10482
10425 10427 10429 10432 10435 10437 10439 10440 10443 10447 10450 10453 10455 10457 10459 10462 10464 10466 10467 10468 10469 10471 10473 10475 10476 10477 10478 10479 10480 10481 10483 10484 10485 10486 10488 10489 10489 10490 10491 10493 10493 10494 10494 10494 10494 10494 10493 10493 10493 10492 10491 10490 10489 10488 10486 10485 10483 10481 10479 10478 10476 10475 10474 10472 10471 10470 10469 10468 10467 10466 10466 10466 10466 10466 10465 10465 10465 10465 10466 10466 10467 10468 10469 10470 10471 10472
10421 10423 10426 10429 10432 10435 10437 10438 10441 10444 10446 10448 10450 10452 10454 10457 10458 10460 10461 10462 10463 10465 10466 10468 10470 10471 10472 10473 10474 10476 10477 10478 10479 10481 10481 10483 10483 10484 10485 10486 10487 10487 10487 10487 10487 10487 10486 10485 10485 10484 10483 10481 10480 10479 10477 10475 10474 10472 10470 10468 10467 10465 10464 10462 10460 10459 10458 10457 10456 10455 10455 10455 10455 10455 10455 10455 10455 10455 10455 10456 10457 10457 10459 10460 10461 10462
10419 10421 10424 10427 10429 10431 10433 10435 10437 10440 10441 10443 10445 10447 10449 10451 10452 10454 10455 10456 10458 10459 10460 10462 10463 10465 10467 10468 10469 10470 10471 10472 10474 10475 10476 10477 10477 10478 10479 10479 10480 10480 10480 10480 10480 10479 10478 10477 10476 10475 10473 10472 10471 10469 10467 10466 10464 10462 10461 10459 10457 10455 10453 10452 10450 10448 10447 10446 10445 10444 10444 10443 10444 10444 10444 10444 10444 10444 10445 10445 10445 10446 10447 10448 10450 10451
10415 10418 10420 10423 10425 10427 10429 10431 10433 10435 10436 10438 10440 10442 10444 10445 10447 10448 10449 10450 10452 10453 10454 10456 10458 10460 10461 10463 10464 10465 10466 10467 10468 10469 10470 10470 10471 10471 10472 10472 10472 10472 10472 10472 10471 10470 10470 10468 10467 10466 10464 10463 10461 10460 10458 10456 10454 10452 10451 10449 10447 10445 10443 10441 10440 10438 10437 10435 10434 10433 10432 10432 10432 10432 10432 10432 10432 10432 10432 10433 10433 10434 10435 10436 10438 10439
10411 10414 10416 10418 10420 10423 10425 10426 10428 10430 10432 10434 10435 10437 10438 10440 10441 10442 10444 10445 10446 10447 10449 10451 10453 10455 10456 10457 10459 10460 10460 10461 10462 10463 10463 10463 10464 10465 10465 10465 10465 10464 10464 10463 10463 10462 10461 10460 10459 10457 10456 10454 10453 10451 10449 10447 10445 10442 10440 10439 10437 10435 10433 10431 10430 10428 10426 10425 10423 10422 10421 10420 10419 10419 10419 10418 10418 10419 10419 10420 10421 10421 10422 10423 10425 10427
10408 10410 10412 10414 10416 10418 10420 10421 10423 10425 10426 10428 10429 10431 10432 10434 10435 10436 10438 10439 10441 10442 10444 10446 10448 10449 10451 10452 10453 10454 10454 10455 10455 10456 10456 10457 10457 10457 10457 10457 10457 10456 10456 10455 10455 10454 10453 10452 10450 10449 10447 10446 10444 10442 10440 10437 10435 10433 10431 10429 10427 10425 10424 10422 10420 10417 10415 10414 10412 10410 10409 10408 10407 10406 10406 10406 10405 10405 10406 10407 10408 10409 10409 10410 10412 10414
10404 10406 10408 10409 10411 10412 10414 10416 10418 10419 10421 10422 10424 10425 10427 10428 10429 10430 10432 10434 10436 10437 10439 10440 10442 10443 10444 10445 10446 10447 10447 10448 10448 10449 10449 10449 10449 10449 10449 10449 10449 10448 10448 10447 10447 10446 10445 10443 10442 10441 10439 10437 10435 10433 10431 10429 10426 10424 10422 10420 10418 10416 10414 10411 10409 10407 10405 10403 10401 10399 10398 10396 10395 10394 10394 10394 10394 10393 10393 10393 10395 10396 10397 10398 10399 10401